COSMOS 397 DEB, 5015

Orbit data source: Space-Track

COSMOS 397 DEB, 5015 is space debris in LEO originally from a launch on Thu, 25 Feb 1971 UTC launched from the Tyuratam Missile And Space Complex (TTMTR). Debris objects in space refer to the collection of defunct objects orbiting the Earth. Examples of debris include non-operational satellites, rocket bodies, and fragments generated from explosions, collisions, or faulty payload assembly.

Loading next visibility...
Identifier
5015, 1971-015J
Orbit
LEO
Country
Flag of CISCIS
Related business
Manufacturer
Unknown
Mission
Spacecraft
Bus & Motor
Unknown
Mass
Unknown
Launch date (UTC)
1971-02-25 (55 years ago)
Launch vehicle
Unknown
Launch site
Tyuratam Missile And Space Complex (TTMTR)
Object type
Payload
Rocket body
Debris
Shape & HBR
Unknown shape, 0.3 m
Radar Cross Section
Medium (>0.1 m² and <1 m²)

Expand to show TLE details & history
Last TLE update: 8 hours ago

TLE from 8 hours ago
0 COSMOS 397 DEB
1 05015U 71015J   25349.86489913  .00002869  00000-0  88496-3 0  9999
2 05015  65.7089 315.2946 0630187  50.2513 315.2344 13.66129636639732
Epoch: 2025-12-15T20:45Z
TLE epoch observation values (Epoch: 2025-12-15T20:45:27.284Z)
Latitude
-0.00009°
Longitude
-80.82646°
Altitude
700.277 km
Speed
7.665 km/s
True Right ascension
21h 01m 10s
True Declination
0° 00' 00"
Sunlit
Object was in daylight at epoch
Visualization orbit readout
Latitude
Unknown
Longitude
Unknown
Altitude
Unknown
Speed
Unknown
Apparent Right ascension
Unknown
Apparent Declination
Unknown
Sunlit
N/A
Visualization observer readout
Local Sidereal Time
03:08:07
Azimuth
Unknown
Elevation
Unknown
Doppler factor
Unknown
Orbital elements
Apogee altitude
1,477.747 km
Perigee altitude
546.31 km
Semi-major axis
7,390.165 km
Eccentricity
0.06302
Inclination
65.7089°
RAAN
315.2946°
Arg. of periapsis
50.2513°
True anomaly
309.85649°
Mean anomaly
315.2344°
Eccentric anomaly
312.57553°
Mean motion
3.41635 °/min
Orbital period
105.38 mins
BSTAR
0.00088496
Loading maneuver chart data...
Computing Atmospheric mass density...

Documentation

Showing up to 5 results
|